Theta_e
315 315 315 316 314 313 311 311 311 312 312 313 313 314 315 315 315 314 313 313 311 307 306 306 306 302 301 301 298 298 298 297 296 292 291 288 287 288 287 288 289 289 288 288 289 286 283 298 294 291 294 296 296 297
315 314 315 315 314 312 311 311 311 312 312 312 313 314 314 314 315 311 312 311 312 310 306 309 310 310 309 307 302 299 298 296 297 292 291 291 289 289 287 287 292 288 292 290 292 291 296 298 296 298 297 296 297 297
314 314 314 315 313 311 310 311 311 311 312 311 312 313 314 314 314 310 309 309 312 309 308 308 307 311 311 309 309 302 301 301 299 300 295 294 288 292 286 287 289 292 294 292 291 295 296 298 299 299 299 298 298 299
313 314 314 314 313 311 310 311 311 311 311 311 312 313 313 314 313 310 309 309 311 307 303 303 311 309 309 308 308 308 305 302 302 301 297 295 293 294 291 291 291 295 295 293 291 294 295 297 299 299 299 300 300 301
312 313 313 314 313 310 310 311 311 311 311 309 310 312 312 313 312 310 311 311 312 309 303 305 309 309 310 308 307 307 306 302 299 298 296 294 295 293 294 294 289 295 294 292 294 299 298 298 300 301 300 300 302 301
312 312 313 313 312 309 309 310 310 310 310 309 309 310 312 312 310 313 310 313 314 314 307 301 308 307 308 306 306 305 306 302 300 297 295 296 297 298 290 287 297 298 299 301 298 300 300 302 302 302 301 302 303 303
312 312 313 313 311 309 309 310 310 310 309 308 308 309 310 310 311 309 309 311 310 312 306 301 301 306 306 304 305 305 306 304 304 299 296 296 295 297 294 287 299 298 299 300 300 300 297 300 300 303 303 304 304 304
311 312 313 312 311 309 309 309 310 309 308 308 308 309 310 310 309 311 314 310 311 311 309 299 300 304 308 304 301 303 303 304 301 300 299 296 295 294 288 296 299 299 299 299 299 301 303 303 303 303 304 304 302 302
311 312 313 312 310 308 309 309 309 309 308 308 309 310 310 310 311 311 313 312 314 310 303 301 298 298 307 304 305 305 306 297 301 295 295 295 288 286 294 297 298 299 299 301 301 301 301 301 302 304 303 302 301 302
311 311 312 311 309 308 308 309 309 309 308 308 309 310 309 312 314 315 311 306 307 307 306 300 302 301 304 307 305 301 301 295 289 292 296 291 290 297 298 301 302 298 300 302 300 300 301 301 302 303 302 303 303 303
311 312 311 309 308 308 308 309 309 308 307 308 310 310 312 312 312 309 304 302 302 301 302 302 303 301 308 303 302 303 297 293 289 292 291 290 291 298 301 301 303 303 302 303 305 304 304 304 303 302 302 303 303 303
311 311 309 308 308 308 308 308 309 306 306 308 309 309 311 309 306 302 302 303 300 300 302 303 306 302 307 308 303 302 295 294 288 298 291 288 298 301 303 302 304 306 305 303 305 305 305 304 304 304 304 304 304 304
310 309 308 307 307 308 308 308 308 307 307 309 308 308 307 306 296 297 295 299 301 305 305 305 305 307 305 305 302 298 293 292 300 291 289 296 302 303 304 304 305 305 305 305 305 306 306 305 306 305 305 305 305 303
306 306 307 308 308 309 309 308 309 308 306 305 305 292 302 301 303 304 304 305 307 307 306 306 305 302 302 300 300 294 297 296 290 287 290 297 303 303 304 305 303 304 304 305 305 306 306 306 307 307 307 306 305 302
307 307 308 309 308 308 309 308 308 307 306 304 306 295 302 309 310 310 308 307 307 309 306 302 302 302 301 298 299 296 291 288 290 291 297 302 303 303 304 305 304 304 305 304 305 303 304 306 306 305 306 306 306 304
307 309 310 309 308 308 308 308 307 306 309 306 305 305 309 308 309 307 308 308 309 307 305 305 300 296 296 298 293 291 290 288 293 298 302 303 303 304 305 305 306 306 306 306 305 304 305 306 303 305 305 305 305 304
308 311 309 309 308 308 307 307 306 305 305 306 307 311 310 310 309 311 309 308 308 305 299 300 295 293 298 294 292 296 294 298 301 303 305 304 303 304 305 305 305 305 305 305 305 305 305 303 301 301 299 302 304 305
310 311 310 308 308 306 306 307 307 307 304 308 306 310 311 313 312 312 310 305 306 304 302 299 301 295 293 290 293 299 300 303 304 304 305 305 304 304 304 303 304 303 303 303 303 303 303 303 301 301 301 301 304 305
306 308 310 309 309 309 308 307 307 302 306 312 313 313 313 314 314 315 311 308 309 308 304 302 298 296 297 299 300 302 303 303 302 305 305 304 303 302 302 303 303 302 302 302 302 301 302 301 298 301 300 300 302 304
308 308 308 310 309 305 304 308 311 307 307 312 313 312 314 314 314 311 309 307 307 306 304 299 300 302 301 304 305 306 307 307 306 304 304 304 304 302 301 301 301 302 302 302 302 298 301 299 296 298 300 300 301 301
308 308 309 307 305 305 306 308 309 312 314 311 313 313 312 311 311 309 307 308 305 304 302 305 306 306 306 307 308 308 306 307 306 306 305 302 302 302 302 302 301 302 301 300 299 299 298 297 299 301 302 302 303 304
308 309 308 306 307 306 304 308 305 308 309 310 310 311 310 309 310 309 309 306 306 308 308 308 306 306 305 306 306 308 309 307 306 301 299 299 299 299 299 299 301 300 300 299 298 296 298 300 301 303 302 301 300 301
308 310 312 310 307 302 301 313 309 310 306 309 311 307 308 309 309 310 304 305 307 308 307 307 306 307 307 306 306 305 307 306 303 301 300 300 300 299 299 300 300 299 299 300 302 299 299 298 303 304 303 302 300 299
307 309 308 306 304 299 310 308 311 310 310 308 307 304 307 308 309 307 304 305 307 307 306 307 305 303 302 304 302 302 302 304 302 300 301 299 298 298 300 300 300 301 302 302 301 301 301 303 299 304 303 302 299 298
300 300 301 292 306 305 306 307 308 307 305 306 303 304 306 308 305 305 304 306 305 305 305 306 305 306 302 299 299 299 301 302 300 298 299 300 299 299 299 300 300 301 302 300 300 300 301 303 303 302 301 301 299 298
291 300 297 305 304 303 304 303 305 305 306 304 305 308 308 305 301 301 306 308 305 303 305 305 303 300 300 301 299 299 300 302 301 299 299 300 300 298 298 297 297 299 304 302 301 300 300 301 301 301 300 297 294 298
292 299 304 308 305 305 305 305 308 306 304 304 306 303 303 298 299 305 310 308 305 304 308 307 305 304 301 299 299 300 301 302 302 301 302 301 302 303 301 298 297 300 303 303 303 301 300 300 300 300 300 300 300 299
304 304 300 304 305 308 305 303 304 304 306 308 306 302 301 301 303 312 311 308 306 305 306 304 304 304 301 301 300 299 299 298 298 300 299 300 301 301 300 301 301 291 301 303 303 303 302 301 300 300 299 299 300 301
301 305 305 302 303 303 303 303 306 311 312 309 306 305 307 312 315 314 310 305 304 303 302 300 299 300 299 299 299 299 298 298 297 296 296 296 296 298 300 299 300 302 302 301 292 298 301 301 301 300 300 301 299 300
301 305 303 302 300 299 303 307 312 315 314 314 313 312 313 313 313 307 301 301 302 303 304 303 299 299 298 298 297 296 298 299 299 299 296 296 296 299 300 300 299 299 301 301 301 300 293 300 297 301 300 300 300 299
304 302 301 300 299 303 306 308 313 313 313 312 313 311 313 313 309 303 301 300 299 300 301 300 299 300 299 299 298 296 295 297 297 299 300 301 300 300 300 301 301 299 299 301 301 301 301 301 300 299 298 297 297 297
304 302 300 298 301 307 314 313 312 311 312 312 311 312 312 311 305 304 301 304 304 301 298 300 300 300 301 302 301 301 295 301 299 299 300 300 300 301 301 301 301 299 300 300 301 301 301 300 299 298 298 297 297 297
305 303 303 303 303 307 311 312 310 309 310 309 309 311 312 311 307 313 310 308 309 309 302 301 303 302 303 301 301 301 296 302 299 294 294 294 295 297 300 301 301 300 299 299 300 300 299 299 298 298 298 298 298 298
Wind_Speed
11 10 11 7 6 8 7 8 8 9 9 9 10 10 12 13 13 4 2 4 2 1 1 5 6 5 4 2 2 4 3 3 2 2 2 3 3 4 3 2 4 5 6 4 2 4 5 8 6 6 5 3 2 4
11 9 10 7 6 7 7 7 8 8 8 9 9 9 9 10 11 4 1 2 2 2 3 2 3 1 2 4 4 2 3 2 2 4 1 3 3 3 3 3 4 4 3 3 6 2 3 6 1 5 4 4 5 5
11 10 10 7 6 7 6 6 6 6 7 8 9 8 7 8 9 6 2 2 1 2 2 2 3 1 3 5 3 3 2 4 4 2 3 2 3 4 5 5 4 5 4 3 3 7 9 7 5 4 4 1 2 5
12 11 11 8 7 7 7 6 6 5 5 6 8 7 7 8 7 6 2 1 1 2 1 2 3 1 3 4 4 2 8 6 6 2 3 3 2 4 2 1 3 1 10 6 5 5 2 6 9 5 9 9 7 7
10 9 11 8 7 7 6 6 5 5 4 4 6 8 7 7 5 3 1 1 2 3 2 3 5 2 4 4 6 7 12 7 3 3 3 3 3 5 2 2 5 8 8 7 5 7 6 5 12 13 13 11 8 7
11 9 9 7 7 7 6 5 4 5 4 4 4 7 6 5 2 2 2 2 1 1 1 2 2 2 6 3 5 8 6 3 2 3 1 2 2 4 5 5 6 11 10 8 3 8 4 8 9 11 12 9 5 6
10 10 8 7 6 6 6 6 4 4 3 3 4 6 5 4 2 1 3 3 1 1 1 2 2 2 2 3 3 3 2 2 1 3 3 2 2 3 2 4 5 10 13 10 6 9 5 9 6 11 10 5 5 5
9 9 7 7 6 5 5 5 5 4 4 4 4 6 5 4 2 1 1 3 3 2 1 1 1 1 2 1 2 0 3 2 2 1 2 2 3 1 5 6 4 2 6 10 14 13 4 4 6 7 6 5 6 5
8 8 8 7 6 5 3 4 4 3 4 4 5 6 1 0 1 3 5 8 0 2 1 1 1 2 2 1 1 1 1 1 2 1 1 3 2 4 5 4 2 1 4 4 11 11 10 10 8 6 6 6 7 6
7 7 9 8 6 5 2 3 4 2 3 4 2 2 2 1 2 3 2 1 1 2 2 1 1 2 1 1 2 2 0 2 1 1 1 1 3 7 5 3 5 7 6 5 9 7 7 7 8 8 8 5 5 5
7 8 9 8 5 4 3 3 3 0 1 1 1 2 1 2 2 1 2 1 1 2 2 3 4 2 1 3 1 1 2 1 1 1 2 1 3 2 3 4 10 9 7 10 8 2 6 6 9 8 7 6 5 4
7 7 6 4 4 4 4 3 2 1 1 2 2 1 1 2 1 1 1 2 3 1 3 2 1 3 1 2 1 2 2 2 1 1 2 3 2 3 6 6 6 6 7 9 8 10 9 8 8 8 7 6 7 6
8 5 6 6 6 7 7 6 8 2 1 2 2 2 1 1 1 3 1 2 2 3 4 3 1 0 2 1 2 0 2 1 1 1 1 3 2 3 5 7 8 6 3 3 6 8 9 10 10 10 8 6 9 8
1 2 5 7 9 10 8 8 11 5 3 2 2 2 3 3 4 4 3 2 1 2 4 2 2 1 0 2 1 2 1 2 1 1 1 4 4 5 5 5 6 7 6 8 7 8 12 12 10 9 9 9 11 10
5 6 4 3 6 3 7 10 13 2 1 2 2 4 6 4 2 0 1 2 4 3 4 4 3 2 2 2 1 1 3 2 4 3 2 3 5 7 7 6 5 5 5 6 4 2 5 8 9 9 8 10 12 11
6 1 3 6 7 10 12 9 2 1 1 2 4 4 3 2 2 3 4 3 5 4 3 2 2 3 2 0 3 2 2 3 1 2 4 4 5 5 4 5 6 5 6 8 8 7 6 7 5 8 6 11 13 13
4 1 8 9 9 9 5 1 2 3 2 3 4 4 4 4 4 2 4 3 6 5 3 3 2 0 2 2 2 3 3 1 2 3 2 3 5 5 6 6 7 6 6 7 8 7 6 1 3 3 3 6 10 11
2 3 9 11 8 4 2 2 2 3 4 4 4 1 3 3 2 3 3 4 5 4 4 2 3 4 2 3 2 3 3 2 2 3 2 1 2 3 4 5 6 7 7 7 8 8 6 5 3 4 3 4 9 9
3 3 7 12 4 2 2 4 3 3 5 3 3 3 3 2 3 1 1 5 0 3 6 3 2 3 3 3 3 2 3 3 3 1 1 3 3 4 4 5 5 6 6 6 6 4 4 4 4 3 7 2 5 5
0 2 9 10 3 2 3 2 2 3 4 1 2 3 2 1 0 1 4 5 5 4 3 4 5 3 4 4 4 3 4 4 3 2 2 3 2 3 4 3 3 4 4 4 4 5 5 4 4 3 4 4 4 6
2 5 9 4 2 2 3 2 3 3 3 3 1 2 1 1 2 3 4 4 4 4 4 5 5 3 4 2 2 2 3 4 2 0 2 3 3 3 2 3 3 3 4 5 7 7 7 5 4 5 6 4 4 5
1 6 2 2 2 3 3 3 3 2 3 2 2 1 2 1 1 2 3 5 4 4 4 3 2 5 5 4 4 3 4 6 6 5 6 4 3 3 4 4 3 4 5 6 7 7 6 5 4 5 6 5 4 3
5 3 2 3 2 2 5 2 4 4 3 1 1 2 2 2 2 2 3 3 3 1 2 2 4 5 8 6 6 5 4 7 7 6 5 5 4 4 4 4 4 5 5 5 2 4 5 5 6 6 5 4 5 5
2 3 3 3 4 4 2 4 3 2 2 2 2 2 1 1 1 3 3 2 1 2 3 6 7 7 6 6 4 4 4 5 7 6 4 5 5 5 4 4 5 5 4 3 4 4 1 2 3 4 4 4 5 7
2 3 3 4 3 3 4 3 4 3 3 3 2 2 1 1 2 3 3 2 3 4 4 5 4 4 6 6 6 4 4 4 6 7 4 4 6 5 5 5 5 5 4 5 6 5 5 4 4 5 5 5 6 6
3 4 6 4 2 4 3 4 2 2 2 3 3 1 1 2 3 4 2 2 3 5 7 8 7 6 5 6 8 6 5 4 5 6 5 5 3 4 5 5 5 4 2 4 5 5 5 5 5 6 6 7 5 5
3 4 4 3 2 2 4 3 2 3 3 3 2 4 2 3 4 3 1 3 3 4 6 7 6 7 8 7 6 5 6 5 3 4 6 4 3 1 1 3 5 4 2 1 1 3 5 6 6 6 6 5 4 4
5 3 5 2 3 3 4 2 3 4 3 2 3 5 3 4 2 1 0 2 2 6 7 5 3 5 8 8 7 7 6 5 6 6 6 4 3 2 3 3 3 2 3 3 3 4 3 5 5 6 5 5 3 2
4 2 3 4 4 4 4 5 4 3 4 4 3 4 3 2 2 0 1 2 5 7 8 7 5 5 7 6 6 6 7 8 10 11 10 7 6 5 4 3 3 3 4 6 7 5 5 4 5 5 4 3 3 3
4 5 4 3 4 5 4 5 2 1 3 1 1 1 2 2 1 1 3 6 5 6 7 8 8 8 8 9 8 7 6 7 6 5 6 6 7 6 6 5 4 4 3 3 4 6 5 4 4 2 2 2 2 2
1 4 4 4 5 4 5 2 2 2 3 3 3 3 2 1 1 2 3 2 7 1 5 7 7 6 8 9 9 9 8 9 8 7 2 3 7 6 6 6 5 5 4 4 4 3 3 2 1 2 3 3 3 2
4 7 4 4 4 1 2 3 2 3 2 2 1 1 2 2 2 3 4 7 6 4 7 6 8 9 10 8 7 8 6 7 10 11 12 5 7 7 6 5 6 5 6 5 5 3 2 0 1 1 1 2 2 2
4 3 4 4 4 3 2 3 3 2 1 0 0 1 1 2 1 2 3 2 6 9 7 6 6 3 7 9 7 6 6 4 7 11 13 10 9 7 5 5 6 7 8 6 5 4 3 3 2 1 1 1 1 2
Wind_Direction
296 306 310 290 299 297 321 336 338 333 345 352 355 355 358 3 7 342 78 13 346 331 198 202 168 142 143 195 209 122 191 138 121 116 172 139 151 188 175 155 179 179 159 177 180 223 234 154 155 232 62 91 4 353
292 297 300 273 285 289 316 332 338 330 342 352 350 356 1 0 6 344 109 52 338 253 1 311 285 306 191 171 135 153 35 146 115 101 129 141 149 161 167 186 189 206 221 184 211 216 114 167 149 129 124 61 25 356
295 294 297 259 266 276 302 318 332 333 335 348 342 349 352 3 14 28 37 355 223 6 210 255 237 7 193 188 188 134 185 131 155 27 131 112 166 160 177 223 182 212 180 230 210 189 208 205 188 178 164 95 264 280
296 297 297 262 266 283 309 325 335 334 330 349 336 331 343 2 20 35 21 1 46 90 327 79 330 56 358 176 167 46 125 113 112 177 137 158 194 203 198 82 234 173 165 188 253 246 190 235 215 220 217 235 257 274
282 292 296 261 254 273 300 318 336 332 324 326 323 330 341 3 36 73 79 44 16 338 328 324 311 49 5 200 161 141 144 125 142 154 178 189 133 165 154 189 234 193 178 188 215 191 182 212 204 211 215 234 256 281
279 269 278 237 247 275 298 315 331 344 314 300 322 326 330 360 358 173 144 108 70 316 290 342 6 328 11 97 152 161 149 104 126 145 186 219 75 205 168 213 245 203 201 205 208 168 136 140 170 192 211 230 241 278
266 270 262 221 228 264 295 312 336 350 316 294 301 304 317 333 351 23 38 41 100 288 281 311 352 46 20 94 104 147 153 102 110 161 171 185 154 181 255 210 238 202 217 195 164 137 185 196 201 198 207 233 269 277
258 264 239 207 221 259 287 312 349 338 311 289 299 300 312 300 248 128 31 239 204 289 303 347 333 318 353 37 156 172 168 160 149 186 145 157 124 182 249 243 283 235 199 200 200 214 234 138 187 207 228 243 248 259
251 256 217 194 223 247 281 318 339 316 301 307 302 297 256 322 111 88 69 125 144 341 44 52 350 9 21 220 103 136 83 188 63 75 273 147 111 223 239 286 305 283 215 212 191 206 216 226 237 225 217 224 243 258
238 240 184 188 221 246 286 306 321 312 320 325 274 209 121 42 311 155 151 126 77 11 44 180 108 286 296 215 141 127 46 51 67 227 324 337 258 247 236 243 308 315 239 182 156 186 195 214 212 212 216 229 251 270
246 192 173 191 215 243 267 281 316 333 317 239 211 73 69 327 197 161 135 194 160 226 191 223 214 284 184 303 44 28 106 79 352 81 324 323 280 346 125 245 283 283 250 228 240 209 186 206 201 201 210 223 218 221
158 160 178 219 243 258 249 232 175 201 296 4 14 94 193 193 173 207 180 153 209 259 175 212 197 209 221 295 244 131 112 183 355 155 325 320 313 232 209 217 215 270 278 249 233 230 219 215 211 212 220 207 189 184
133 162 230 261 267 255 240 213 187 181 206 210 210 159 170 159 173 211 135 161 239 180 178 188 213 307 161 78 89 197 207 41 291 237 253 262 300 289 278 259 247 241 256 271 254 237 233 226 217 217 210 197 179 180
143 265 283 297 297 270 229 198 171 177 241 215 165 309 225 192 235 196 186 174 132 165 166 162 136 268 85 168 101 214 123 182 222 237 253 352 2 343 319 297 256 248 243 250 255 250 229 224 229 212 210 192 183 187
332 322 317 21 26 53 137 150 159 180 229 214 156 222 222 242 251 139 170 169 178 155 154 144 124 234 151 155 216 180 193 219 208 226 261 332 328 318 318 322 299 276 281 294 312 302 286 261 237 220 199 198 189 188
323 122 79 109 101 124 134 129 157 206 211 224 229 247 206 250 209 190 195 212 163 142 141 132 137 213 154 224 220 234 262 232 217 249 323 312 304 313 335 347 343 323 300 308 309 306 282 237 192 253 164 215 189 190
193 121 153 137 130 136 149 183 198 218 252 221 239 228 248 280 263 218 199 172 148 178 172 153 204 49 120 224 229 196 225 231 292 311 315 316 323 338 345 352 360 358 351 347 338 334 322 11 122 158 139 207 210 193
42 140 159 151 158 157 191 221 240 244 250 234 247 225 198 244 220 219 191 153 169 175 165 138 117 206 224 236 224 211 216 240 245 270 313 24 12 31 29 10 4 358 359 4 358 352 354 334 263 208 141 280 215 187
287 276 185 177 193 241 226 187 222 259 240 257 255 236 238 253 231 278 152 161 210 129 129 111 254 226 215 208 239 202 199 210 230 190 62 69 46 41 37 32 25 16 5 4 359 357 351 10 350 263 123 175 196 187
131 3 215 185 197 241 242 200 201 259 265 297 242 236 241 240 111 166 154 154 158 162 155 187 216 211 207 186 202 206 194 181 175 235 153 126 93 75 46 32 29 0 356 356 345 334 345 340 323 277 129 167 188 183
211 91 109 145 178 244 274 245 236 234 287 261 283 248 263 202 196 183 168 163 202 211 207 214 218 193 167 108 143 174 133 159 180 249 35 128 123 107 97 70 38 10 1 18 354 353 351 359 13 81 143 162 167 169
149 160 154 180 238 185 263 226 269 303 251 284 260 253 268 240 170 169 125 202 231 218 204 189 182 157 152 161 152 191 108 128 115 107 105 125 108 65 28 15 359 23 39 42 47 14 20 40 22 82 110 118 130 116
168 208 215 186 244 210 266 186 244 204 247 242 232 244 213 211 147 151 231 229 262 172 137 104 105 91 117 109 108 98 106 127 119 115 113 99 87 56 48 46 44 44 61 60 63 18 11 6 51 57 81 95 98 92
172 235 223 214 197 261 251 233 223 244 236 241 240 253 195 322 356 237 254 242 133 130 148 134 133 112 104 114 109 114 115 125 115 111 122 123 96 75 76 85 77 76 65 58 68 93 71 38 341 54 92 101 86 91
278 259 141 276 224 244 240 231 199 205 257 173 243 243 153 277 251 247 253 243 167 166 154 150 149 148 131 115 117 120 148 147 137 128 132 123 117 126 111 102 87 67 32 39 45 61 82 94 109 91 85 101 126 115
230 216 178 214 200 219 245 276 217 232 203 212 223 70 220 239 243 241 227 192 181 175 175 168 154 137 133 142 140 150 155 162 147 137 148 171 165 128 125 114 109 108 90 31 24 33 51 56 73 78 86 92 70 106
253 245 212 222 270 270 266 253 261 254 249 219 174 182 201 235 247 243 206 193 179 178 169 161 169 153 142 148 125 118 136 159 149 138 135 161 167 137 73 98 77 66 103 153 55 33 52 62 72 78 86 101 74 63
238 241 216 166 216 224 263 261 244 235 212 156 154 198 223 220 250 36 52 134 131 135 133 130 134 134 137 143 133 135 135 119 109 114 115 119 155 152 116 102 76 53 60 68 106 91 91 65 87 106 97 96 87 49
229 208 212 243 230 228 227 222 239 229 155 168 203 216 235 239 323 303 133 151 148 147 137 137 117 120 110 117 131 150 155 160 162 171 180 168 170 169 165 141 108 94 86 97 61 53 72 54 64 70 67 80 83 73
232 187 218 232 222 228 229 201 233 141 188 214 314 282 229 239 282 97 159 138 177 175 157 146 145 163 163 170 165 172 190 194 203 191 171 174 172 151 163 161 150 142 137 125 111 119 144 133 136 103 84 94 64 50
186 185 217 232 250 238 243 237 205 195 202 210 206 244 257 304 136 100 134 111 95 45 150 149 165 184 175 182 184 185 199 201 209 222 211 153 156 166 171 167 158 152 159 154 137 124 120 104 83 75 81 70 80 8
197 207 207 222 246 229 214 216 204 206 181 212 206 247 235 234 203 119 153 116 117 234 251 207 188 198 204 204 195 190 208 186 186 196 192 182 176 181 178 177 171 175 178 173 169 162 159 188 110 38 91 37 15 15
205 200 225 261 254 233 182 203 209 162 126 261 58 318 322 320 351 114 157 198 200 211 214 211 202 187 189 198 204 201 194 176 183 182 173 170 167 170 178 181 183 188 191 196 192 189 198 179 172 143 105 16 355 320